This demonstration page uses our WeatherBlox Daily Observations layout. Learn more.

Left ArrowRight Arrow

Hourly Observations for March 4, 2015

Temp ( °F °C ) Dew Point ( °F °C ) Humidity (%) Winds ( mph kmh ) Pressure ( in mb ) Visibility ( mi km ) Precip ( " mm )
12:51 am 00:51 Mostly Clear 43 6.1 29 -1.7 58 58 NNW 3 6 29.80 1009 10 16 0.00 0.00
1:51 am 01:51 Mostly Clear 40 4.4 30 -1.1 68 68 Calm 29.80 1009 10 16 0.00 0.00
2:51 am 02:51 Mostly Cloudy 42 5.6 31 -0.6 65 65 Calm 29.80 1009 10 16 0.00 0.00
3:51 am 03:51 Cloudy 41 5 32 0 70 70 NW 3 6 29.80 1009 10 16 0.00 0.00
4:51 am 04:51 Mostly Cloudy 40 4.4 33 0.6 77 77 Calm 29.81 1009 10 16 0.00 0.00
5:51 am 05:51 Clear 40 4.4 33 0.6 77 77 WSW 3 6 29.83 1010 10 16 0.00 0.00
6:51 am 06:51 Sunny 37 2.8 32 0 82 82 Calm 29.87 1012 10 16 0.00 0.00
7:51 am 07:51 Sunny 44 6.7 34 1.1 68 68 E 3 6 29.89 1012 10 16 0.00 0.00
8:51 am 08:51 Sunny 47 8.3 33 0.6 59 59 Calm 29.91 1013 10 16 0.00 0.00
9:51 am 09:51 Sunny 52 11.1 34 1.1 50 50 VRB 3 6 29.92 1013 10 16 0.00 0.00
10:51 am 10:51 Sunny 56 13.3 32 0 40 40 W 12 19 29.91 1013 10 16 0.00 0.00
11:51 am 11:51 Sunny 59 15 31 -0.6 35 35 WNW 13 20 29.91 1013 10 16 0.00 0.00
12:51 pm 12:51 Sunny 62 16.7 26 -3.3 25 25 WNW 14 22 29.89 1012 10 16 0.00 0.00
1:51 pm 13:51 Sunny 63 17.2 23 -5 22 22 W 21 33 29.88 1012 10 16 0.00 0.00
2:51 pm 14:51 Sunny 63 17.2 20 -6.7 19 19 W 18 30 29.88 1012 10 16 0.00 0.00
3:51 pm 15:51 Sunny 63 17.2 20 -6.7 19 19 WNW 20 31 29.89 1012 10 16 0.00 0.00
4:51 pm 16:51 Sunny 62 16.7 23 -5 22 22 WNW 21 33 29.91 1013 10 16 0.00 0.00
5:51 pm 17:51 Sunny 60 15.6 25 -3.9 26 26 WNW 20 31 29.93 1014 10 16 0.00 0.00
6:51 pm 18:51 Clear 56 13.3 27 -2.8 33 33 WNW 13 20 29.98 1015 10 16 0.00 0.00
7:51 pm 19:51 Clear 54 12.2 29 -1.7 38 38 WNW 16 26 30.01 1016 10 16 0.00 0.00
8:51 pm 20:51 Clear 50 10 29 -1.7 44 44 WNW 9 15 30.05 1018 10 16 0.00 0.00
9:51 pm 21:51 Clear 47 8.3 28 -2.2 48 48 NNW 7 11 30.07 1018 10 16 0.00 0.00
10:51 pm 22:51 Clear 47 8.3 26 -3.3 44 44 NNW 8 13 30.09 1019 10 16 0.00 0.00
11:51 pm 23:51 Clear 45 7.2 25 -3.9 46 46 NNW 8 13 30.10 1019 10 16 0.00 0.00

Powered by AerisWeather